Welcome to the New NWS' Forecast!
Most changes are behind the scenes, but click here for differences you might notice.

Regional Weather Roundup (RWR)

Issued by Gray - Portland, ME (GYX)

                            
000
ASUS41 KGYX 180005
RWRGYX
WEATHER ROUNDUP FOR MAINE AND NEW HAMPSHIRE
NATIONAL WEATHER SERVICE GRAY ME
800 PM EDT WED OCT 17 2018

MEZ002-005-006-010-012-015-018-020-021-024-026-027-029-180100-
MAINE
  
CITY           SKY/WX    TMP DP  RH WIND       PRES   REMARKS
PORTLAND       FAIR      43  39  86 W10G17    29.80R                  
6HR MIN TEMP:  43; 6HR MAX TEMP:  58; 6HR PCP:  0.01;                

SANFORD        CLOUDY    44  40  85 W8        29.81R                  
BAR HARBOR     FAIR      42  39  89 VRB5      29.72R                  
WISCASSET      FAIR      45  33  63 VRB6      29.78R                  
6HR MIN TEMP:  45; 6HR MAX TEMP:  58; 6HR PCP: TRACE;                

ROCKLAND       FAIR      47  33  58 W16G25    29.74R                  
FRYEBURG       FAIR      42  28  57 VRB3      29.80R                  
6HR MIN TEMP:  42; 6HR MAX TEMP:  56; 6HR PCP: TRACE;                

LEWISTONAUBURN FAIR      44  30  57 NW10      29.78R                  
AUGUSTA        FAIR      43  30  60 W13G20    29.76R                  
6HR MIN TEMP:  43; 6HR MAX TEMP:  56; 6HR PCP:  0.01;                

WATERVILLE     FAIR      43  26  51 W9G18     29.72R                  
BANGOR         FAIR      43  37  79 W7        29.71R                  
6HR MIN TEMP:  42; 6HR MAX TEMP:  55; 6HR PCP:  0.08;                

GREENVILLE       N/A     36  29  75 VRB7G24   29.66R                  
6HR MIN TEMP:  35; 6HR MAX TEMP:  46; 6HR PCP:  0.02;                

MILLINOCKET    LGT RAIN  41  31  67 NW23G37   29.70R                  
6HR MIN TEMP:  41; 6HR MAX TEMP:  51; 6HR PCP:  0.06;                

HOULTON        FAIR      39  35  86 W10       29.62S                  
6HR MIN TEMP:  39; 6HR MAX TEMP:  47; 6HR PCP:  0.06;                

PRESQUE ISLE   FAIR      37  32  82 W5        29.62R                  
6HR MIN TEMP:  37; 6HR MAX TEMP:  47; 6HR PCP:  0.02;                

FRENCHVILLE    LGT RAIN  37  32  82 W9        29.57R                  
6HR MIN TEMP:  36; 6HR MAX TEMP:  46; 6HR PCP:  0.17;                

CARIBOU        MOCLDY    38  33  82 VRB3      29.59S                  
6HR MIN TEMP:  37; 6HR MAX TEMP:  47; 6HR PCP:  0.03;                

$$

NHZ002-005-008-009-011-012-014-180100-
NEW HAMPSHIRE
  
CITY           SKY/WX    TMP DP  RH WIND       PRES   REMARKS
PORTSMOUTH     MOCLDY    46  37  71 NW13      29.82R                  
ROCHESTER      LGT RAIN  43  39  86 CALM      29.81R                  
6HR MIN TEMP:  42; 6HR MAX TEMP:  59; 6HR PCP:  0.05;                

NASHUA         MOCLDY    46  38  73 W7        29.86R                  
MANCHESTER     FAIR      46  39  76 SW6       29.83R                  
6HR MIN TEMP:  45; 6HR MAX TEMP:  59; 6HR PCP:  0.04;                

CONCORD        LGT RAIN  43  37  79 NW10G17   29.85R                  
6HR MIN TEMP:  41; 6HR MAX TEMP:  58; 6HR PCP:  0.01;                

LACONIA        FAIR      42  35  76 W8        29.83R                  
PLYMOUTH       MOCLDY    41  34  75 W5        29.83R                  
BERLIN         FAIR      39  25  57 VRB7      29.78R                  
6HR MIN TEMP:  38; 6HR MAX TEMP:  45; 6HR PCP:  0.04;                

WHITEFIELD     FAIR      38  27  64 CALM      29.81R                  
6HR MIN TEMP:  38; 6HR MAX TEMP:  46; 6HR PCP:  0.01;                

JAFFREY        FAIR      43  35  73 W8        29.85R                  
6HR MIN TEMP:  43; 6HR MAX TEMP:  54; 6HR PCP:  0.02;                

KEENE          FAIR      44  33  65 W6        29.88R                  
LEBANON        CLOUDY    44  32  62 W10       29.85R                  
6HR MIN TEMP:  43; 6HR MAX TEMP:  54; 6HR PCP: TRACE;                

MT WASHINGTON  BLWGSNOW  16  16 100 NW58        N/A  VSB 0   WCI -10  
6HR MIN TEMP:  16; 6HR MAX TEMP:  24; 6HR PCP:  0.24;                

$$

VTZ005-007-008-180100-
VERMONT
  
CITY           SKY/WX    TMP DP  RH WIND       PRES   REMARKS
ST JOHNSBURY     N/A     40  27  59 MISG      29.81R                  
MONTPELIER     LGT RAIN  37  35  92 NW13      29.88R                  
BURLINGTON     CLOUDY    44  28  53 NW23G35   29.89R                  
$$

MAZ007-012-024-CTZ003-RIZ002-NYZ038-NYZ072-180100-
SOUTHERN NEW ENGLAND AND NY
  
CITY           SKY/WX    TMP DP  RH WIND       PRES   REMARKS
BOSTON         FAIR      52  35  52 W20G30    29.86R                  
WORCESTER      FAIR      41  38  89 W12       29.88R                  
NANTUCKET      FAIR      54  41  61 NW25G33   29.87R                  
PROVIDENCE     FAIR      50  35  56 W15G30    29.91R                  
HARTFORD       FAIR      46  35  65 VRB7      29.95R                  
ALBANY         FAIR      43  33  68 W16       29.97R                  
NEW YORK CITY  FAIR      57  37  47 NW21G29   30.00R                  
$$

ANZ081-ANZ082-ANZ150-NHZ014-MEZ023>029-180100-
COASTAL MARINE OBSERVATIONS
  
STATION/POSITION TIME  TEMP    WIND        PRES    WAVE
                       AIR SEA DIR/SP/G            HT/PER
                 (UTC) (F)     (DEG/KT/KT) (MB)    (FT/S)
MOUNT DESERT ROC 0000   51     280/ 23/ 26 1006.0F
MATINICUS ROCK   2300   47     290/ 23/ 25 1006.1R
ISLE OF SHOALS   2300   49     260/ 25/ 27 1008.6R
JEFFREYS LEDGE   2336      56                N/A     5/ 5
$$

.............KEY..............
   WCI - WIND CHILL
   TC  - TEMPERATURE IN CELSIUS
   VSB - VISIBILITY IN MILES
   HX  - HEAT INDEX
   FAIR- INDICATES FEW OR NO CLOUDS BELOW 12,000 FT, WITH NO 
         SIGNIFICANT WEATHER AND/OR OBSTRUCTIONS TO VISIBILITY.